User: anonymous   Login
Location: Long Point Provincial Park
(42.5794°N, 80.4103°W)
Time: 08:04:54
(UTC-04:00)
Language:

Iridium 19 - Orbit

View from above orbital plane
View from above orbital plane
View from above satellite
View from above satellite

Ground track
Ground track

The orbit data is extracted from the following two-line orbital elements,

1 24965U 97056A   16236.35038908 -.00000032  00000-0 -18387-4 0  9995
2 24965  86.3927  83.2283 0002082  81.4153 278.7279 14.34216110989868
Epoch (UTC): 23 August 2016 08:24:33
Eccentricity: 0.0002082
inclination: 86.3927°
perigee height: 776 km
apogee height: 779 km
right ascension of ascending node: 83.2283°
argument of perigee: 81.4153°
revolutions per day: 14.34216110
mean anomaly at epoch: 278.7279°
orbit number at epoch: 98986

The dashed part of the orbit path shows where the satellite is in the earth's shadow,  

DLR